Theta_e
315 319 319 317 320 320 318 318 314 315 314 308 309 311 313 316 316 317 316 318 319 326 327 322 322 331 339 336 336 335 336 340 344 339 336 348 349 349 353 351 351 348 346 345 342 338 339 338 333 334 337 338 338 340 342 342 341 341 340 339 340 341 341 339 339 339 340 338 338 340 340 338 339 340 340 340 339 339 340 339 338 338 337 337 338 338 338 337 337 337 337 336 336 336 337 337 336
320 320 318 318 320 320 318 316 312 311 310 306 309 312 313 317 315 315 316 316 318 320 319 318 319 329 338 341 341 340 341 343 347 346 345 349 348 350 352 350 350 347 347 344 342 340 342 340 334 334 337 337 337 339 341 341 341 339 339 341 342 342 341 338 338 339 339 339 340 342 339 338 338 338 339 340 340 340 341 339 338 337 337 338 338 339 339 338 337 338 337 336 336 336 336 337 337
321 318 318 318 320 318 318 314 311 308 307 305 308 314 314 315 315 315 316 315 317 316 317 318 324 333 340 345 344 343 347 346 345 345 346 349 349 350 351 351 349 347 346 344 343 342 342 339 334 338 339 338 337 340 341 341 341 340 340 341 342 341 340 338 337 337 338 339 340 339 337 339 339 338 339 340 341 341 341 341 339 337 338 338 338 339 339 338 338 339 339 338 338 337 337 336 337
319 319 320 318 316 315 316 313 312 308 306 306 307 314 315 315 315 315 316 316 317 316 318 320 330 340 342 347 346 344 348 346 345 345 347 349 349 350 351 351 348 347 345 344 344 342 342 337 333 338 340 339 339 339 340 341 341 341 341 341 341 339 337 336 334 335 337 339 338 336 337 339 339 339 339 341 342 342 341 341 339 338 339 339 339 340 340 340 340 340 340 339 338 338 337 337 337
318 319 320 320 317 315 316 314 313 309 307 308 308 314 315 315 315 315 315 317 317 317 320 323 334 344 344 347 347 346 347 346 345 346 347 348 350 351 350 350 348 347 345 344 344 343 342 337 333 335 336 337 338 337 337 339 340 340 340 338 337 336 335 335 336 338 339 340 338 338 339 339 338 338 339 341 341 341 340 340 337 338 339 340 341 341 341 340 340 340 339 339 338 338 337 336 335
319 319 319 320 319 316 315 311 310 309 312 313 311 314 315 315 315 315 316 317 318 318 324 330 336 344 347 346 346 345 347 346 345 346 348 349 350 350 350 349 348 346 345 345 344 343 342 337 334 331 331 334 334 334 334 336 337 336 335 335 335 335 335 337 340 340 341 341 341 341 340 339 338 337 338 339 339 338 339 338 336 338 340 340 340 340 341 340 339 339 339 339 337 336 334 334 334
318 318 317 316 316 315 314 310 309 310 314 315 313 315 315 315 315 316 317 318 318 320 328 335 338 343 347 347 346 346 347 347 346 346 348 349 350 350 350 349 348 346 345 344 344 343 340 336 334 331 330 330 331 331 332 333 334 334 333 334 335 336 337 339 341 341 342 342 342 342 341 340 338 336 336 336 337 337 337 336 337 339 340 340 340 340 340 339 339 339 339 337 334 333 333 333 333
319 319 316 315 315 314 313 311 311 313 314 315 315 315 314 315 317 319 319 319 319 322 324 331 339 342 347 348 347 348 347 347 346 347 348 349 350 350 349 349 347 346 345 344 344 343 340 336 333 334 334 332 331 330 331 332 333 333 332 333 334 337 338 339 340 341 342 342 342 342 341 341 339 337 336 335 336 337 336 336 338 340 340 339 339 340 339 339 339 338 336 334 333 334 333 333 332
318 318 315 315 316 313 311 310 312 315 314 315 315 314 316 320 323 323 323 322 321 322 318 323 338 344 348 348 348 348 347 348 347 347 349 349 350 349 349 348 347 346 345 345 344 342 340 337 336 337 337 336 335 332 330 331 333 333 334 335 336 337 339 340 340 341 342 341 342 341 340 340 339 338 337 336 335 335 334 336 339 339 339 339 339 339 339 339 337 335 333 333 333 334 333 332 331
316 316 315 314 314 310 308 309 312 314 314 314 314 315 319 324 327 328 330 328 324 322 319 326 339 344 347 349 349 348 348 348 347 348 348 349 349 349 349 348 347 346 345 345 344 342 340 338 338 339 338 337 335 331 330 331 332 332 334 336 337 338 339 340 340 340 340 340 340 339 338 338 338 338 337 336 335 334 332 334 338 339 339 339 339 339 338 337 334 332 332 332 333 334 333 331 331
315 314 315 313 310 307 307 309 311 313 314 313 314 316 318 325 328 330 334 328 324 320 322 333 341 344 348 350 348 348 348 348 348 348 348 349 349 349 348 347 346 345 345 345 343 342 340 337 339 340 338 337 333 330 331 331 331 331 334 336 337 338 339 340 339 339 338 339 339 337 336 336 337 338 337 336 335 334 332 332 337 339 338 338 338 338 337 336 333 332 332 333 333 335 333 331 331
315 314 314 312 309 309 309 309 311 314 314 314 315 316 316 324 327 332 334 324 322 321 323 335 340 344 349 350 348 348 349 348 348 347 348 348 348 348 347 347 346 345 345 345 343 342 341 338 338 338 338 338 334 334 334 333 333 333 334 336 337 338 339 339 338 337 336 337 336 334 334 335 337 338 337 336 336 334 331 331 335 338 338 337 337 336 336 335 333 332 332 333 333 334 334 332 331
316 315 313 311 312 312 311 310 312 313 313 315 316 315 316 322 325 333 337 326 322 323 326 338 340 343 349 350 348 348 349 348 348 347 348 348 347 347 346 346 345 344 345 345 344 342 341 340 339 338 339 338 335 336 335 335 336 335 335 335 337 338 337 337 336 335 334 334 335 334 334 335 337 337 337 336 336 334 331 329 333 337 336 335 335 334 334 333 332 331 331 332 333 334 334 333 332
314 315 313 312 313 313 311 311 312 311 312 316 315 315 316 318 323 332 339 334 329 332 336 340 341 344 349 350 348 348 349 348 347 347 347 347 347 346 345 345 344 344 345 345 344 343 341 340 341 339 338 337 334 335 336 336 336 335 335 335 336 336 335 334 334 333 332 332 333 333 334 334 336 336 335 336 336 335 333 330 331 333 334 333 333 332 332 331 330 329 330 331 332 334 334 334 333
314 314 314 313 312 311 312 312 312 311 312 316 314 315 316 317 322 328 337 340 339 341 342 342 342 346 348 348 348 347 348 348 347 346 347 347 346 345 345 345 344 345 345 345 344 342 341 340 341 340 340 338 336 336 336 335 335 335 335 335 335 334 332 333 332 332 331 330 330 331 332 333 335 336 335 335 335 334 334 332 331 330 331 331 331 332 331 330 329 329 329 330 332 333 334 334 333
314 313 313 312 311 310 311 313 312 311 312 316 315 315 316 316 322 326 336 342 343 343 342 343 344 346 345 344 347 347 347 347 346 346 347 346 346 345 345 344 344 345 345 345 344 343 341 340 341 341 341 341 340 339 337 336 335 335 335 335 334 333 332 332 332 331 330 330 331 332 332 334 335 334 335 335 335 335 335 335 334 332 332 332 332 332 331 329 329 329 329 330 331 332 334 334 334
314 314 314 312 310 310 312 313 312 311 313 316 315 315 316 315 319 325 334 341 341 343 344 344 344 344 344 345 347 348 347 347 346 346 347 346 346 345 344 344 343 344 345 345 344 343 342 340 341 342 342 343 344 342 340 338 335 335 335 334 334 333 333 332 332 332 332 333 333 333 334 337 337 335 336 336 336 336 336 337 337 335 335 334 333 332 330 329 329 328 328 329 330 332 333 334 334
313 314 313 310 311 312 312 314 313 313 315 315 315 315 315 315 316 318 327 337 341 343 345 344 345 345 345 347 348 347 347 347 347 346 347 346 345 345 343 343 343 342 343 344 344 343 342 342 341 342 343 344 344 343 342 339 336 336 336 335 335 335 334 334 336 336 336 336 335 337 338 339 339 338 338 336 336 337 337 338 338 337 336 335 333 332 330 329 328 328 328 328 329 331 333 334 334
314 315 313 312 313 313 313 314 313 314 315 314 315 315 315 315 316 314 319 329 336 342 345 344 345 345 344 346 347 347 347 347 347 347 347 346 345 344 343 342 342 342 342 342 343 343 342 342 342 342 344 345 343 343 342 340 338 339 337 337 338 337 336 337 338 338 339 338 338 340 340 340 339 339 337 335 336 336 336 336 336 335 333 332 330 328 327 328 327 326 327 327 328 330 333 335 335
314 315 313 313 314 314 313 313 314 315 315 315 315 314 315 315 315 315 316 322 330 337 343 345 346 346 344 344 346 347 346 347 347 346 347 345 344 344 342 342 342 341 341 342 342 342 342 342 342 341 343 345 343 343 342 341 340 339 338 339 339 338 338 339 338 338 339 339 340 341 340 340 339 338 337 334 334 334 332 329 327 327 326 324 325 326 325 326 326 327 327 327 329 330 333 335 335
314 314 313 314 314 313 314 313 315 315 314 315 314 315 315 315 315 315 315 320 328 334 338 342 345 346 344 343 346 347 347 347 347 346 346 345 344 343 342 342 341 341 341 341 341 341 341 342 342 341 343 344 343 343 342 342 341 340 340 340 339 338 338 338 338 339 340 340 340 340 340 339 339 338 337 336 335 334 331 328 327 329 329 327 328 331 330 329 329 330 328 329 331 332 333 333 334
315 315 313 315 314 313 315 315 314 314 314 314 314 315 314 315 315 315 315 317 323 328 332 339 342 344 344 343 346 347 346 346 346 345 345 344 343 342 341 341 341 341 340 341 341 341 342 342 342 341 343 343 342 343 342 342 342 341 341 341 340 339 338 338 338 340 340 340 340 339 339 339 338 338 338 338 337 335 334 333 333 334 333 332 332 334 333 333 333 333 332 331 332 332 332 333 333
314 314 314 315 314 313 315 314 314 314 314 315 314 315 314 314 315 315 315 316 318 323 330 338 340 344 346 346 346 346 345 344 344 344 344 344 343 342 341 341 341 340 340 341 341 342 343 343 341 341 342 343 342 342 341 342 341 341 341 341 340 340 340 339 339 340 340 340 340 339 340 339 339 339 339 340 338 336 336 334 333 334 334 334 333 333 333 334 334 333 333 332 332 332 332 332 332
313 313 315 315 314 314 314 314 314 314 315 315 314 314 314 314 315 315 315 316 319 323 329 337 341 345 346 345 345 345 344 343 344 343 342 343 342 342 341 341 341 341 342 342 342 343 343 344 342 342 343 342 341 341 341 341 340 341 341 340 340 340 340 340 339 340 340 340 340 340 340 339 339 340 340 340 338 337 335 334 334 334 334 334 333 333 334 334 334 334 333 333 332 332 331 332 331
313 312 315 314 315 314 314 314 314 315 315 314 314 313 314 314 314 314 314 319 327 330 332 336 342 344 343 345 345 345 343 342 343 342 342 342 342 342 341 341 341 342 344 343 342 342 343 344 343 342 342 341 341 341 341 341 340 340 340 340 340 339 339 339 339 340 339 339 339 339 340 340 339 339 339 339 338 336 336 335 335 334 334 333 333 333 334 334 335 335 334 334 333 333 332 332 332
313 313 314 314 314 313 314 314 314 314 314 314 313 313 314 315 314 313 317 325 331 336 336 339 343 342 342 345 344 343 342 342 343 342 342 342 342 342 341 341 342 343 343 340 340 340 340 342 343 342 342 341 341 341 341 341 340 339 340 341 339 339 339 340 340 339 339 339 339 339 339 339 339 339 339 338 337 336 336 335 335 335 334 333 333 334 335 335 335 335 335 335 334 334 333 333 333
315 314 314 314 314 314 314 313 314 313 313 313 313 313 314 315 314 316 328 334 335 338 340 341 343 341 343 344 343 342 342 342 341 341 341 341 341 341 341 341 342 342 340 339 339 340 339 340 342 342 341 341 340 341 341 341 339 339 341 340 339 339 340 340 339 339 339 339 338 338 339 339 339 339 338 338 337 336 336 336 335 335 335 334 335 334 335 335 335 335 336 335 335 335 334 333 334
314 313 313 313 313 314 313 312 313 313 313 314 313 314 313 315 313 315 330 337 337 340 342 343 342 342 344 344 343 341 341 341 340 340 342 341 340 341 341 340 341 340 340 339 339 340 339 340 341 340 340 340 340 340 341 340 338 339 341 340 339 339 339 339 339 339 339 338 338 338 339 339 339 338 337 337 337 336 336 336 335 335 335 335 335 335 335 335 335 335 335 335 335 334 334 333 333
313 312 312 312 312 313 313 313 313 312 313 313 313 313 312 314 315 319 331 335 338 342 343 343 342 343 344 344 341 340 340 340 340 340 341 340 340 340 340 339 339 339 339 339 340 339 339 340 340 340 339 339 340 341 340 340 339 339 340 339 339 339 339 338 339 339 338 338 339 339 339 338 337 336 336 336 336 336 336 335 336 335 335 334 334 334 334 334 334 335 334 334 334 334 334 333 333
312 313 312 312 312 312 313 313 313 313 312 313 313 309 311 314 315 321 331 334 338 342 343 343 343 343 343 342 339 339 339 339 341 340 339 339 339 338 336 336 337 337 338 339 339 339 339 339 339 340 339 339 340 340 339 340 339 338 339 339 339 338 338 338 338 338 338 338 338 338 339 337 336 336 335 335 335 336 336 336 336 335 335 334 333 333 334 334 334 334 334 334 333 333 333 333 334
313 313 312 312 311 310 313 313 312 313 312 312 312 308 311 315 315 322 331 334 338 341 343 343 342 344 343 341 340 340 340 340 341 340 340 339 337 336 335 336 336 336 336 337 339 339 339 338 339 339 340 339 339 339 339 339 338 337 338 339 338 338 338 337 338 338 338 338 338 338 338 337 336 336 336 334 335 336 336 336 336 335 335 334 334 333 333 334 334 334 334 334 333 333 333 333 334
313 311 310 312 310 310 313 312 312 314 312 313 312 309 311 315 316 325 333 336 338 339 341 342 342 343 344 342 341 340 340 341 341 340 341 339 338 339 338 338 338 336 335 336 339 340 339 338 339 339 339 339 338 338 338 338 338 337 337 338 338 338 337 337 338 337 337 337 337 337 337 336 336 337 336 335 335 336 336 336 336 335 334 334 334 333 333 333 333 333 333 334 333 333 333 333 333
313 311 310 312 310 310 312 312 313 313 313 313 312 310 312 315 315 325 334 336 337 338 338 341 341 342 344 343 341 341 341 340 340 341 341 340 340 340 339 338 338 337 336 338 339 339 339 338 339 338 338 338 338 338 337 337 338 337 336 337 337 337 337 337 337 337 337 337 337 336 336 336 336 337 336 335 336 337 337 336 336 335 334 334 334 333 333 333 333 333 332 333 333 333 333 333 333
313 312 311 312 311 310 310 311 313 313 313 313 313 312 313 315 314 321 332 335 336 338 337 339 341 341 343 343 341 341 342 340 340 342 341 340 340 339 338 338 337 337 338 338 338 338 339 338 338 338 338 338 338 337 336 336 337 335 335 337 337 336 336 337 336 337 337 337 337 336 336 336 336 337 336 336 337 337 337 336 336 334 334 334 334 333 333 333 333 332 332 332 332 332 332 332 332
313 312 311 312 311 311 310 311 313 312 313 313 314 313 313 315 314 318 327 333 335 338 339 338 340 340 342 342 341 340 341 341 341 342 341 340 340 339 338 338 338 338 338 338 338 338 339 338 337 337 337 337 337 336 335 335 336 334 335 337 336 336 336 336 337 337 337 337 336 336 336 336 336 336 336 336 336 336 336 336 335 334 334 334 333 333 333 333 332 332 331 331 331 331 331 331 332
313 313 312 311 310 310 311 312 313 313 312 313 313 313 313 315 314 316 323 331 334 337 339 339 338 340 341 341 340 340 340 340 341 342 341 340 339 339 338 338 338 338 338 338 338 339 338 337 337 336 336 337 336 336 336 336 336 335 336 335 334 335 335 336 337 337 337 337 336 336 336 336 336 336 336 335 335 334 334 335 335 334 334 334 334 333 333 332 332 331 331 330 331 331 330 331 331
313 313 312 311 310 311 312 313 312 313 312 312 313 313 314 315 315 316 320 327 332 335 339 339 338 338 340 340 340 341 341 339 340 341 341 340 338 339 339 340 339 339 339 338 339 339 337 337 337 336 336 337 336 336 336 336 335 335 335 333 332 334 335 336 337 337 336 336 336 335 336 336 336 335 335 334 333 333 333 334 334 333 334 334 334 333 333 332 332 331 331 331 330 330 330 330 331
314 312 312 311 310 311 313 313 312 313 312 311 313 313 313 315 315 316 319 322 327 331 336 338 338 338 338 340 341 341 341 340 339 341 342 341 339 339 339 341 340 340 340 339 339 338 337 337 336 336 336 336 336 336 336 335 334 334 334 333 331 333 335 336 336 336 336 336 336 335 335 335 335 334 334 333 333 333 333 333 333 333 334 334 334 333 333 332 332 331 331 331 330 330 331 331 332
314 313 311 310 311 312 313 313 312 312 312 312 313 312 313 315 315 316 318 318 321 325 330 334 336 337 336 338 341 341 341 341 340 340 342 342 341 340 340 341 341 341 340 339 338 337 337 336 335 335 335 336 336 335 335 334 334 334 334 333 332 333 335 336 336 336 336 336 335 334 334 334 334 333 333 333 333 333 333 333 334 334 334 334 333 333 333 333 333 332 331 331 330 331 331 331 332
314 313 311 310 312 312 311 312 313 313 312 312 314 313 313 315 315 316 317 318 318 320 323 327 332 335 335 336 340 342 342 342 341 340 342 343 342 341 340 341 341 341 340 339 338 337 336 336 335 335 334 335 335 335 335 334 333 334 334 334 335 334 334 336 337 336 336 335 334 333 333 333 333 332 332 333 333 333 333 333 334 334 335 334 333 333 333 333 333 333 332 331 331 331 331 331 332
315 315 312 311 312 312 311 312 313 313 313 314 313 311 311 313 315 315 316 317 317 317 320 325 329 332 334 335 338 341 343 343 342 341 342 343 343 341 340 341 341 341 340 340 339 337 336 336 336 334 334 335 335 334 334 334 333 334 334 334 336 336 335 337 337 336 335 334 333 333 332 333 332 332 332 332 332 332 332 333 333 333 334 334 334 334 333 333 333 332 333 332 332 331 330 330 331
313 315 314 312 312 312 312 312 312 310 310 313 313 308 309 313 314 315 316 317 317 316 320 325 329 331 333 334 336 341 342 342 342 340 340 342 343 342 341 341 341 341 340 340 338 336 336 336 335 334 334 334 335 334 334 334 334 334 335 335 335 335 334 336 336 335 334 333 332 332 332 332 332 332 332 332 332 332 332 332 332 332 333 332 333 334 333 333 333 332 332 332 332 332 331 331 331
312 314 314 313 312 312 312 311 311 308 309 314 315 309 308 311 314 316 316 317 316 317 319 322 325 329 331 332 334 339 341 341 341 340 339 341 343 342 342 341 341 341 340 339 338 336 336 336 335 334 334 334 334 335 335 335 334 334 334 334 334 333 333 334 335 334 333 332 331 331 331 332 331 332 332 331 331 331 331 331 331 332 332 332 333 334 334 333 333 332 332 332 332 332 332 331 331
312 313 312 312 312 312 312 311 310 309 311 315 315 312 310 309 313 317 317 317 317 318 319 320 321 325 329 331 333 337 340 340 340 339 338 340 342 342 342 341 341 340 340 339 338 336 335 334 334 334 333 333 334 334 334 334 334 335 334 332 332 332 333 335 334 332 331 330 331 330 330 330 331 331 331 331 331 331 331 330 331 331 331 331 332 333 334 333 333 332 332 332 332 332 332 331 331
312 313 312 311 312 312 312 311 310 311 313 311 312 313 311 309 312 317 319 317 316 318 320 321 321 322 326 331 334 336 338 340 338 337 338 340 342 341 341 341 341 340 340 339 338 335 333 332 332 332 332 331 332 334 334 334 335 334 333 333 333 334 335 335 333 331 330 330 330 330 330 329 330 330 331 331 330 330 330 330 330 331 331 330 330 331 332 333 333 333 333 332 332 332 331 332 331
312 312 312 312 312 312 313 312 311 313 314 310 311 313 311 309 310 313 317 316 317 321 323 325 325 321 324 330 334 336 337 337 336 336 338 340 341 340 341 341 340 340 338 336 336 334 332 331 331 330 330 330 331 332 333 334 334 333 332 331 330 333 335 332 331 331 331 330 330 330 329 328 329 330 330 330 330 329 330 330 330 330 331 331 330 330 331 333 333 333 333 333 333 332 331 332 332
312 312 312 312 313 313 314 314 312 314 314 311 311 313 312 309 309 311 317 320 325 330 330 330 330 326 325 330 333 335 334 335 336 336 338 341 341 340 340 339 338 337 333 332 333 332 331 330 329 329 330 330 330 331 332 332 333 332 331 330 329 332 333 331 330 331 330 329 329 329 329 328 328 329 329 330 330 330 329 330 329 329 330 330 330 329 330 332 333 333 333 333 332 331 331 332 332
311 311 312 312 313 313 313 313 314 314 313 311 312 314 312 309 310 316 324 328 331 333 333 334 334 330 329 331 333 334 334 335 336 336 338 340 340 339 338 336 336 334 329 329 332 332 330 330 329 328 329 329 330 330 330 331 332 332 330 331 333 333 332 331 331 330 329 329 329 328 328 328 328 328 328 329 330 330 329 329 328 328 328 328 328 328 329 330 332 333 333 332 332 331 331 332 332
311 311 312 312 311 313 313 312 314 313 312 312 312 312 311 309 313 321 329 331 332 332 333 333 333 333 332 332 332 333 335 336 336 337 338 338 338 337 336 335 335 331 327 329 331 331 331 331 329 328 328 329 330 330 330 330 333 333 330 332 335 334 332 331 331 330 329 329 329 328 328 327 327 327 328 329 329 330 329 328 327 327 327 327 327 327 327 328 330 330 332 332 331 331 331 331 331
311 311 311 311 311 313 315 313 312 311 311 314 314 313 311 309 316 326 330 331 332 332 332 333 333 335 335 333 333 334 335 336 337 337 337 337 337 338 336 335 334 330 328 329 329 331 332 331 330 329 328 329 330 330 330 331 333 333 332 333 335 333 332 331 330 330 329 329 329 328 328 327 326 327 327 328 329 329 328 328 327 327 327 327 327 328 328 328 329 328 329 331 331 331 332 331 331
312 312 312 311 310 312 314 312 310 310 311 314 314 313 310 310 320 330 331 331 332 332 333 333 333 334 335 334 334 335 337 337 337 337 336 337 338 337 335 334 334 332 331 330 329 331 332 331 331 330 328 329 329 330 331 332 333 333 332 333 332 332 332 331 330 330 330 330 329 328 328 327 326 326 327 328 329 328 328 328 327 327 327 327 327 328 328 328 329 327 327 330 331 331 332 331 331
313 313 312 311 311 312 312 313 314 312 311 313 313 312 312 317 326 331 331 331 332 332 332 334 335 334 335 336 335 336 337 336 337 337 336 337 338 336 334 334 335 334 332 331 331 331 332 331 331 330 329 329 329 330 331 331 332 331 331 331 331 331 332 331 330 330 330 329 328 328 327 326 327 327 327 328 328 328 328 328 327 325 325 326 327 327 326 327 327 327 326 329 329 329 330 331 330
313 312 311 313 315 313 312 315 317 314 311 312 313 312 313 318 326 330 330 331 331 330 331 333 335 335 335 336 336 337 337 336 336 336 335 336 336 334 334 335 336 333 331 331 330 331 331 331 331 330 330 330 329 330 330 331 331 331 330 330 330 331 332 332 331 330 330 329 328 327 327 327 327 326 327 328 328 327 327 327 326 324 323 325 326 325 325 325 326 326 326 326 326 326 327 327 328
313 311 312 313 315 314 313 313 315 313 312 312 312 312 311 314 322 329 331 331 332 330 330 332 333 334 335 335 334 334 335 336 335 335 334 335 334 334 334 335 335 333 330 330 330 331 332 331 330 330 330 331 331 331 331 331 331 330 329 330 330 330 332 333 330 330 329 329 328 327 327 328 327 326 326 327 328 327 327 326 325 323 322 323 325 325 324 324 324 325 324 324 324 324 324 325 326
312 312 313 314 313 313 313 313 313 313 312 312 312 312 311 312 321 329 330 332 332 331 330 330 331 332 333 334 334 333 333 333 333 333 333 333 333 333 333 334 334 333 331 331 331 332 332 331 330 330 331 331 331 331 331 331 331 330 330 330 330 330 332 332 330 329 329 329 328 327 328 328 327 326 326 326 327 327 326 326 324 323 322 322 324 325 324 323 323 323 322 321 322 322 322 323 325
312 312 313 314 314 313 313 313 313 312 311 312 312 312 317 322 325 329 330 331 332 331 331 330 329 331 332 332 334 333 333 333 332 332 331 331 332 332 332 333 334 333 332 332 331 332 332 331 331 330 331 331 331 331 331 331 330 330 331 331 330 331 332 331 330 329 328 328 327 327 328 328 327 326 326 326 326 326 326 325 324 322 321 320 322 324 323 322 322 321 320 320 320 321 320 321 322
311 312 312 313 314 314 314 314 312 311 311 314 312 312 322 329 326 327 330 331 331 331 331 330 329 330 329 330 331 331 333 333 332 332 331 331 332 333 332 333 333 333 333 332 332 332 331 331 331 331 331 331 331 331 331 331 330 330 330 330 330 330 331 331 329 328 328 328 327 327 328 327 327 326 326 326 326 325 325 325 323 322 320 319 321 323 322 321 321 321 320 319 319 319 319 319 320
314 313 312 312 313 313 313 313 312 311 311 313 312 313 324 328 324 326 329 330 330 330 330 330 329 329 328 328 329 329 330 330 331 331 330 331 333 332 332 333 332 332 332 332 332 332 332 332 331 331 331 332 331 331 331 331 330 329 329 330 330 331 330 330 329 328 328 328 327 327 327 327 326 326 325 325 325 324 324 324 323 321 318 318 320 322 322 320 320 320 319 319 318 318 319 319 319
Wind_Speed
8 5 5 5 4 5 6 5 4 3 4 5 5 3 2 2 2 2 3 2 2 2 2 5 6 5 6 6 5 6 6 6 6 1 1 3 9 15 19 23 27 26 24 24 25 27 26 26 28 27 28 27 27 28 28 29 29 29 28 27 26 24 23 23 23 22 21 22 22 21 20 20 19 19 19 19 19 18 18 18 18 17 18 19 20 19 19 19 19 18 17 16 15 14 14 14 13
6 6 6 5 5 6 3 3 5 3 5 6 4 2 3 4 2 3 1 1 2 4 5 8 8 5 6 6 6 7 2 5 8 6 4 9 15 15 20 25 26 26 25 24 24 25 24 25 28 27 27 27 27 28 28 29 29 29 28 27 25 24 22 22 22 21 21 22 21 20 20 20 20 20 20 19 19 18 18 19 19 19 19 19 19 19 19 18 18 17 16 15 14 13 13 12 12
6 7 6 7 6 5 2 3 5 3 5 5 2 3 2 2 2 1 3 5 6 7 8 8 7 4 6 6 4 5 1 5 7 7 6 12 14 14 22 25 25 26 25 25 24 23 22 26 29 27 26 26 27 28 28 29 28 28 27 26 24 23 22 21 21 21 23 22 20 20 21 20 19 20 20 20 18 18 18 18 19 19 19 19 19 18 18 17 17 16 14 13 12 12 11 10 10
7 6 7 8 6 4 4 4 4 4 5 4 0 5 3 1 3 4 5 6 7 8 8 8 4 1 4 3 1 1 2 4 5 6 7 11 12 18 24 24 25 24 24 24 23 22 22 26 30 28 26 27 27 27 28 28 28 27 27 25 23 22 21 20 21 22 21 20 20 21 21 20 19 20 20 19 18 18 18 17 18 18 19 18 18 17 16 16 15 14 13 13 12 11 10 9 9
7 6 7 7 4 2 4 4 3 5 4 3 0 6 3 2 5 6 7 7 7 7 6 6 3 4 1 3 4 2 3 4 3 6 9 12 15 22 25 24 24 23 23 23 23 23 22 27 30 29 29 27 27 27 27 27 27 27 27 25 23 22 21 22 22 22 20 20 20 21 21 21 20 20 20 20 18 18 18 18 17 18 18 17 17 16 16 15 14 14 13 12 11 10 9 9 9
7 8 6 7 3 1 4 4 4 6 3 3 2 3 3 5 7 8 8 8 6 5 5 5 3 4 3 5 4 2 3 2 5 7 10 15 20 23 24 24 23 23 24 23 23 22 24 27 28 30 31 29 28 28 28 27 27 27 26 25 23 23 23 22 21 20 19 20 20 21 22 22 21 20 20 20 18 17 17 17 18 18 17 16 16 16 15 14 14 13 12 11 10 10 9 9 9
7 7 6 6 2 2 6 5 5 5 2 2 5 5 7 8 9 8 9 7 3 2 4 3 4 4 4 5 3 4 1 2 5 9 13 17 22 23 23 23 22 24 23 22 22 23 26 28 28 29 29 30 29 28 28 27 26 26 25 24 23 22 22 20 19 18 18 20 20 20 21 21 21 20 20 20 18 17 17 17 17 18 16 15 15 15 14 14 13 12 11 10 10 10 9 10 10
7 5 3 5 4 4 6 5 5 3 2 2 4 6 8 9 8 9 9 6 3 2 4 3 6 5 4 5 2 5 3 3 6 12 17 20 22 22 23 22 23 24 23 22 22 24 26 27 27 27 28 28 28 28 27 26 25 25 25 24 23 22 21 19 18 17 18 19 19 19 19 19 19 18 19 19 18 16 16 17 17 17 16 15 14 14 15 13 12 11 11 10 10 9 10 11 12
8 5 2 5 4 4 6 6 4 3 1 2 3 5 6 7 8 9 8 7 5 4 6 4 7 5 6 6 2 6 5 6 11 16 19 21 21 21 22 22 23 24 23 22 22 24 23 25 27 27 27 26 26 26 26 27 27 27 26 24 23 22 20 19 18 18 18 18 17 17 17 16 16 17 18 18 17 15 14 16 17 17 16 15 15 14 14 12 11 11 10 10 9 9 10 12 13
7 4 3 4 4 5 6 6 4 2 1 2 3 4 6 7 8 7 7 7 5 4 5 4 7 5 7 7 5 5 5 10 16 18 20 20 20 19 20 21 23 24 23 22 23 24 22 24 27 27 27 26 25 26 27 27 27 27 26 23 22 21 19 19 19 18 18 17 16 17 16 16 16 16 17 17 15 13 13 16 16 16 15 15 14 13 12 12 12 11 9 9 8 9 11 12 13
5 3 4 4 5 6 5 4 3 3 2 1 2 5 7 7 8 7 7 6 4 4 4 5 8 7 8 7 5 5 8 14 18 19 20 20 19 19 20 21 22 23 23 23 23 24 23 24 25 26 26 26 26 27 28 26 26 26 25 22 21 20 18 19 19 18 18 17 17 17 16 16 16 16 16 15 13 12 14 16 15 15 15 14 13 12 12 12 12 10 8 8 8 8 10 12 12
4 4 4 5 5 5 4 3 1 1 1 3 4 7 7 6 8 8 7 4 2 5 8 7 6 8 8 6 4 7 11 15 18 19 20 19 19 19 20 20 21 22 23 24 24 23 24 24 23 25 26 27 28 28 27 26 26 25 23 22 21 19 19 19 19 18 17 16 16 16 15 15 15 15 15 14 12 13 15 16 15 15 14 14 13 12 12 12 11 10 8 8 7 7 9 11 11
5 4 5 5 4 4 4 4 1 2 2 5 5 8 7 6 9 8 6 3 2 4 8 6 3 7 6 6 6 7 12 16 18 19 19 19 18 19 19 20 20 21 22 23 23 24 24 23 22 23 24 26 27 28 27 26 25 24 23 22 20 19 19 18 17 16 16 15 15 14 14 14 14 14 14 13 12 14 16 16 15 14 13 13 12 12 11 11 11 10 9 7 7 7 8 10 11
4 3 5 5 4 5 5 4 2 3 3 7 5 8 7 5 9 8 5 2 3 1 3 4 3 6 6 6 6 7 11 17 20 19 19 19 18 18 18 19 19 21 22 22 23 24 24 23 23 23 23 24 25 26 26 25 24 23 22 21 20 19 18 17 17 16 15 15 14 14 14 14 14 14 14 14 13 14 15 16 15 13 12 12 12 11 10 10 10 10 9 8 7 7 7 9 10
4 2 5 5 5 6 5 4 3 3 3 6 4 8 7 5 7 8 7 3 3 3 1 4 4 3 5 7 6 10 15 19 21 19 19 18 18 18 18 19 19 21 20 21 22 23 23 23 24 24 23 23 24 24 23 23 23 22 21 21 20 19 18 17 17 16 15 15 15 15 15 14 14 14 14 14 14 14 14 14 14 14 13 12 12 11 10 11 10 10 10 9 8 8 7 7 8
4 3 5 6 6 6 4 4 3 3 3 5 5 8 7 6 6 7 7 4 2 3 3 4 3 1 3 4 5 16 21 22 22 20 19 18 18 18 18 19 19 19 19 20 21 21 22 23 24 23 23 23 22 22 22 22 22 21 20 20 20 19 18 18 17 17 16 16 16 17 16 15 14 14 14 13 14 14 14 14 13 14 13 13 12 11 11 11 10 9 9 9 9 8 8 7 7
3 4 6 6 7 5 3 5 3 1 4 5 6 8 8 7 6 5 4 3 1 4 4 3 4 2 3 1 11 23 24 22 22 21 21 18 18 18 17 18 18 19 18 19 20 21 22 22 23 23 23 22 21 21 21 21 20 20 20 19 19 19 18 18 18 17 17 17 17 17 16 14 13 13 13 13 13 12 13 13 13 13 12 12 12 10 10 10 9 9 9 9 9 9 8 7 7
5 5 6 6 6 3 2 1 2 3 3 6 8 7 8 9 7 5 3 1 2 4 5 4 5 0 2 6 16 24 24 23 23 21 21 18 17 17 17 17 18 19 18 19 19 21 22 22 22 22 23 21 20 20 20 21 21 20 19 19 18 18 19 19 18 17 16 16 17 16 14 12 12 12 13 13 12 12 12 12 12 11 11 11 10 10 10 9 9 9 9 8 8 9 9 7 7
7 5 7 7 2 3 4 3 4 4 5 7 8 7 8 8 6 6 5 2 1 5 6 7 8 4 4 10 17 21 22 22 22 20 20 18 18 17 18 17 18 18 18 19 20 21 22 22 21 23 24 22 21 19 19 21 20 19 19 19 19 19 20 18 17 16 15 15 15 13 13 12 12 11 12 13 13 12 12 11 11 10 10 9 9 9 9 9 9 9 9 9 9 9 8 7 6
7 5 7 4 1 3 3 2 3 4 7 8 8 8 8 6 5 6 7 5 4 5 6 8 9 8 8 12 16 19 20 21 20 20 19 18 18 18 18 18 18 18 18 19 19 20 21 21 21 23 24 22 20 18 19 20 18 18 18 19 19 19 19 18 18 16 14 14 13 13 13 13 12 11 12 13 12 11 11 10 8 7 7 7 7 7 7 8 8 8 9 9 8 7 7 7 6
5 6 7 1 2 1 3 2 3 5 6 8 9 9 8 6 7 7 7 6 4 4 4 7 8 10 12 14 16 17 18 19 18 18 17 17 17 17 17 17 17 17 18 18 18 20 20 20 20 22 23 21 19 19 19 18 17 17 16 17 18 18 18 19 20 15 13 13 13 13 13 13 12 12 12 11 10 10 10 9 7 6 7 7 8 8 8 8 8 8 8 8 7 7 6 6 6
4 7 8 2 1 3 2 0 4 6 7 8 9 9 8 9 9 7 7 7 1 1 1 5 7 9 12 14 16 16 16 15 15 14 14 16 17 17 17 16 16 17 17 17 17 19 19 20 20 22 22 20 19 18 18 18 17 16 15 16 16 16 16 18 18 15 14 14 13 13 13 13 12 12 12 10 10 10 9 8 7 7 7 8 8 7 8 7 7 7 7 6 6 6 6 6 6
6 7 7 5 5 6 3 5 6 6 9 9 9 8 9 11 9 5 6 8 4 4 2 3 6 9 11 13 14 14 15 14 13 14 14 15 16 16 16 15 15 16 15 15 16 16 17 18 19 20 20 19 18 17 17 17 16 15 15 16 16 15 15 16 16 15 14 14 13 13 13 13 12 12 11 10 9 9 8 8 7 7 7 7 7 7 7 7 6 6 6 5 5 5 5 6 6
9 6 5 6 6 8 8 8 7 8 9 9 10 9 10 12 8 6 7 8 5 4 3 3 7 10 12 13 13 13 15 14 14 16 16 16 16 15 15 15 15 15 13 13 13 13 15 15 16 17 17 18 18 17 17 17 15 14 15 16 15 15 14 15 15 15 14 13 12 12 12 12 12 11 11 10 9 8 8 8 7 6 6 6 6 7 7 6 6 6 6 5 5 5 5 5 6
11 9 5 6 6 7 8 8 8 9 9 8 9 10 11 10 8 10 10 5 2 3 3 5 9 11 12 13 14 13 14 15 15 15 15 15 16 15 16 15 13 13 11 11 11 12 14 14 15 15 16 18 17 17 17 16 14 14 15 14 14 15 14 13 13 13 13 13 12 11 12 12 11 10 10 9 9 9 9 8 7 6 6 6 6 6 6 6 6 5 5 5 5 5 5 5 5
8 11 8 7 8 7 8 9 9 9 7 7 10 11 10 6 6 9 6 0 0 1 3 7 11 12 12 13 14 14 14 15 15 15 14 15 16 15 15 14 12 10 10 12 13 14 15 15 17 16 15 17 17 17 16 15 14 14 15 14 15 15 12 12 13 12 12 12 11 12 12 11 10 10 10 9 9 9 9 9 9 8 7 6 6 5 5 4 4 4 4 4 5 4 5 4 4
1 7 7 8 9 8 8 9 9 8 8 10 11 10 9 5 4 5 3 4 2 3 6 9 11 11 12 14 13 13 14 16 17 16 15 16 16 16 16 15 14 12 11 13 13 14 15 14 17 18 17 17 16 16 15 14 14 14 14 14 15 15 12 13 13 12 12 12 12 12 12 11 10 9 10 9 9 10 9 9 9 9 8 7 7 6 5 4 4 4 3 4 4 4 4 4 4
2 4 6 8 9 7 8 9 8 7 7 8 8 9 9 7 8 5 3 4 3 4 7 10 10 10 13 14 13 13 13 15 17 16 14 15 15 16 16 16 16 14 11 11 11 13 17 15 16 19 20 19 16 15 15 14 14 13 14 14 14 14 13 14 13 12 12 12 12 12 12 11 10 10 10 10 9 9 9 9 8 8 8 7 7 6 6 5 4 4 4 3 3 3 4 4 4
5 5 7 7 8 9 9 8 6 6 7 4 5 8 9 11 10 3 3 3 4 5 7 9 10 10 12 13 13 12 12 15 16 16 16 16 15 14 15 14 15 18 15 12 11 15 20 19 17 18 20 21 17 15 15 14 13 13 14 14 13 14 14 13 13 12 12 12 13 12 12 11 11 11 10 10 9 8 8 8 7 7 7 7 6 6 6 5 5 4 4 4 3 4 4 4 4
5 5 6 5 6 7 5 4 5 6 5 2 5 7 7 12 8 4 4 4 5 6 7 8 10 11 11 11 11 12 13 15 15 16 17 18 17 16 18 17 18 21 20 17 16 18 21 21 20 19 20 20 17 16 15 14 13 13 14 13 13 14 13 13 13 12 12 12 12 12 11 11 11 11 10 11 9 8 8 7 7 6 6 6 6 6 6 5 5 5 5 5 4 4 4 4 4
4 4 5 5 5 3 6 2 4 5 3 3 8 6 4 9 6 5 3 5 6 7 8 8 9 10 11 11 12 12 13 14 16 16 17 20 20 19 21 23 21 23 25 24 22 20 21 23 22 20 20 19 18 17 16 15 13 13 13 12 13 14 13 13 13 13 12 12 12 12 11 11 11 11 11 11 10 8 7 7 7 6 6 6 6 6 5 5 5 5 5 5 5 4 4 4 3
5 4 4 5 4 2 6 3 2 1 3 5 9 7 6 6 6 5 3 5 6 7 9 10 10 11 11 10 12 12 12 14 16 16 16 18 19 18 19 22 22 24 27 26 22 21 22 24 23 20 19 19 18 18 18 16 14 12 12 12 13 14 13 13 13 13 13 12 12 11 11 11 10 11 11 11 10 8 8 7 7 7 7 7 6 6 5 5 5 5 4 4 5 5 5 4 4
5 5 4 3 4 2 4 6 3 2 0 5 7 7 7 4 5 3 4 5 7 7 9 11 11 11 11 9 11 11 11 12 14 16 17 16 16 16 17 20 21 21 24 23 20 20 21 22 23 19 18 19 18 17 18 17 14 13 12 12 13 14 13 13 13 13 13 12 12 11 11 11 10 10 10 10 10 8 8 8 8 8 7 7 6 6 6 6 6 6 5 4 4 5 5 5 5
6 6 4 3 4 3 2 5 5 2 3 4 6 7 8 3 3 3 4 5 6 7 9 11 10 10 10 9 10 12 12 12 13 15 17 17 16 16 17 17 19 20 20 21 20 19 18 18 20 20 19 20 18 18 19 18 15 14 13 12 13 15 13 13 13 13 12 12 11 11 11 10 10 10 10 10 9 8 8 8 8 8 7 7 7 7 6 6 6 6 6 4 4 5 6 6 6
4 5 4 4 4 5 4 2 3 2 5 6 6 7 10 8 3 3 4 5 6 7 7 9 10 10 10 9 11 12 13 13 13 16 18 18 16 16 18 17 18 20 19 20 20 18 16 15 19 23 22 21 19 18 18 18 16 15 14 13 14 15 14 13 12 12 11 11 11 11 11 10 10 10 10 9 9 9 9 8 8 9 8 8 7 7 6 6 6 6 7 5 4 4 5 6 6
1 2 3 3 3 4 3 2 1 3 6 8 9 8 9 9 6 5 5 5 6 6 7 8 9 10 10 10 10 12 13 12 12 17 19 18 18 17 18 18 18 20 18 19 19 16 18 19 19 23 24 21 19 18 18 16 16 15 14 14 14 14 14 13 12 11 11 10 11 11 11 10 10 10 10 10 9 9 9 8 9 9 9 8 8 7 6 6 6 7 7 7 7 6 6 6 7
2 3 4 5 5 4 3 3 4 3 6 8 9 10 10 10 8 6 5 6 7 8 9 10 11 11 10 11 12 12 12 10 11 16 19 20 19 18 18 18 19 21 21 21 20 19 22 21 18 21 24 22 20 20 18 16 17 17 15 15 15 15 14 13 12 11 10 10 10 11 10 10 10 11 10 10 10 9 9 8 9 9 8 8 7 7 6 6 7 8 8 8 8 8 7 7 7
6 6 6 6 7 4 2 4 5 3 5 8 10 10 11 11 10 6 6 7 9 10 11 12 13 12 11 11 12 12 10 10 12 15 17 20 20 19 19 18 19 22 23 23 21 21 22 22 21 23 23 22 21 22 20 18 20 19 17 17 17 16 15 13 12 11 10 10 10 10 10 10 11 11 11 10 10 9 9 8 9 9 8 7 7 7 7 7 8 8 8 8 8 8 7 8 8
7 6 6 6 4 2 3 5 4 3 4 7 8 9 10 11 12 9 7 8 9 10 12 12 12 12 12 12 12 12 11 11 13 14 15 19 21 20 20 19 20 21 21 22 21 22 25 28 27 23 21 22 22 22 21 21 22 20 19 19 17 17 15 13 11 11 10 10 11 11 10 10 11 11 10 10 10 9 9 9 9 9 8 7 7 8 8 7 7 8 8 8 8 7 7 8 7
7 6 6 6 2 1 4 5 4 3 5 7 7 7 8 10 12 11 10 10 10 11 13 13 12 12 13 13 13 12 14 14 14 14 14 16 18 19 21 20 20 19 20 21 22 24 29 30 26 22 21 21 20 21 21 21 22 20 19 18 15 14 13 12 11 11 10 10 11 11 10 10 10 10 10 10 10 9 9 9 10 10 9 8 7 8 8 7 7 7 7 7 7 8 7 8 7
8 8 8 7 4 4 6 4 3 5 8 8 7 7 8 11 12 12 10 10 11 11 12 12 12 12 12 13 13 13 13 12 13 14 14 15 16 19 21 20 19 19 21 22 23 26 29 26 22 21 21 19 19 21 22 21 20 18 17 16 13 11 12 13 12 11 11 11 11 11 10 11 10 10 10 10 9 9 9 9 10 10 10 9 8 8 8 8 7 7 7 7 7 7 7 8 7
7 9 9 10 9 9 9 8 5 6 7 8 8 7 7 9 12 12 9 9 11 11 12 13 13 13 12 13 14 12 12 11 12 13 13 14 16 18 20 19 18 20 21 22 24 29 28 24 22 21 20 20 19 21 22 21 20 19 19 18 15 14 13 13 13 13 13 13 12 11 10 10 9 10 9 9 9 9 9 9 9 9 9 9 8 7 7 8 8 8 7 7 7 6 6 7 7
6 4 6 9 10 10 9 7 6 6 3 5 7 8 6 5 8 10 10 10 13 12 12 13 12 13 14 14 14 13 12 11 11 13 13 13 15 17 18 18 19 20 22 22 25 30 28 24 24 22 19 19 18 19 21 21 20 19 21 20 18 17 16 14 13 13 14 13 12 12 10 9 9 9 9 8 8 8 9 9 8 8 8 8 8 8 8 8 8 8 8 7 7 7 6 6 6
3 4 2 6 7 8 8 8 8 5 2 4 8 8 6 6 6 7 9 11 13 13 13 13 13 14 16 15 15 13 12 10 10 11 13 13 15 18 18 19 21 21 21 22 24 28 28 24 24 19 15 17 17 17 20 20 20 20 22 20 18 17 16 14 14 14 13 13 13 12 11 10 9 9 9 9 8 8 8 8 8 8 7 8 8 8 8 8 7 7 7 6 6 7 6 5 5
2 5 1 4 4 6 7 7 7 4 3 5 9 8 6 8 7 6 8 11 14 14 13 12 12 15 15 15 15 13 11 10 10 10 12 13 15 18 18 17 19 18 18 20 23 28 30 26 24 19 14 16 16 15 18 19 19 20 20 17 14 14 13 14 15 14 13 13 13 12 11 10 9 9 8 8 8 8 7 8 8 7 7 7 7 7 7 7 7 7 7 6 6 6 6 4 4
1 3 3 3 3 5 6 7 6 4 4 8 9 9 8 7 6 7 8 10 10 7 5 5 7 10 12 13 12 11 10 9 10 9 10 13 14 16 15 12 14 15 14 14 13 19 23 18 18 21 19 17 16 18 19 17 17 18 17 16 15 13 13 14 14 13 13 14 14 12 11 11 10 9 8 7 7 7 7 7 7 8 8 7 7 7 7 7 7 7 7 6 6 6 6 5 4
1 3 6 5 5 5 5 5 5 4 7 9 8 10 8 8 6 5 4 2 3 3 2 3 4 5 8 10 11 11 9 7 8 8 8 10 11 11 9 8 11 11 14 15 9 12 16 14 17 21 21 19 18 20 19 16 17 18 16 18 20 17 16 15 14 14 14 14 14 13 12 11 10 9 9 7 7 7 7 7 7 7 8 7 7 6 7 7 7 7 7 6 6 6 5 5 4
4 6 7 5 5 5 5 6 5 7 7 5 5 8 9 9 6 0 4 4 4 5 4 4 4 3 5 8 9 9 8 7 7 7 7 7 7 6 7 9 10 13 22 19 12 10 14 16 20 18 15 16 17 16 16 16 16 16 16 18 18 16 17 15 15 14 14 14 14 13 11 10 9 9 9 8 7 8 8 8 7 6 6 6 7 6 6 6 6 7 7 6 7 6 5 5 4
7 7 6 7 6 6 7 7 6 8 5 4 4 4 7 9 4 4 6 5 5 5 5 6 4 3 3 7 9 8 7 6 6 6 6 7 7 7 8 9 11 19 22 16 14 11 13 17 22 20 16 15 15 15 17 18 18 15 15 15 15 16 15 14 14 14 13 14 13 13 12 11 10 10 10 9 9 10 9 8 7 6 5 6 6 6 5 5 6 7 7 7 7 7 6 5 5
9 8 7 8 6 6 8 7 7 8 4 5 3 3 6 9 1 6 6 6 6 5 5 5 2 2 3 6 8 7 7 7 6 7 7 6 7 8 10 11 14 20 19 14 11 11 13 17 21 22 20 19 17 19 21 23 22 17 13 12 13 15 15 14 14 14 13 13 12 12 11 10 11 11 11 10 10 11 10 9 8 6 6 6 6 6 5 5 5 5 7 8 8 7 6 5 5
10 9 8 8 7 6 7 6 6 7 4 4 4 4 7 7 1 6 5 6 7 6 6 5 4 4 5 6 8 8 8 8 6 7 7 7 9 11 13 13 13 16 17 15 13 14 16 18 21 22 23 23 21 22 25 26 23 19 15 13 11 12 14 13 12 13 14 13 12 13 11 10 11 11 11 11 11 11 10 9 8 7 7 6 7 6 6 5 5 5 7 7 7 7 7 6 6
7 6 7 8 7 6 4 2 2 3 4 3 5 5 4 1 4 6 6 6 7 7 7 7 7 7 6 6 6 7 8 8 7 7 8 9 10 13 14 13 12 13 15 14 13 15 18 20 22 23 23 23 21 20 24 26 24 21 19 18 15 12 13 13 12 13 14 13 13 13 12 12 12 11 11 11 11 11 10 10 8 8 8 7 7 7 6 6 6 7 7 8 8 8 7 7 6
4 6 8 5 4 6 4 1 2 0 6 4 4 6 4 5 4 4 5 5 6 7 7 8 8 8 8 7 6 5 5 6 6 6 7 8 10 13 14 13 12 13 14 12 11 14 17 19 22 22 21 21 21 20 20 21 25 25 21 23 21 15 14 14 13 13 14 13 13 13 13 12 12 11 11 10 11 11 11 10 9 8 8 8 8 7 7 7 7 8 9 9 9 8 8 7 6
4 5 5 3 1 5 5 4 3 5 7 5 4 7 7 5 3 2 2 5 7 6 7 8 8 8 8 7 6 6 6 6 7 8 8 8 11 14 14 14 14 16 15 13 13 14 16 18 19 21 20 20 20 20 19 19 25 27 23 24 24 19 17 16 13 14 14 13 13 13 13 13 12 11 11 11 11 11 11 10 9 9 9 9 8 8 8 8 8 9 9 9 9 8 7 7 6
7 4 2 3 4 5 5 5 5 6 7 5 5 7 7 4 2 3 1 4 5 5 6 7 7 7 6 5 6 7 8 8 8 8 8 9 10 12 13 13 14 17 17 16 16 16 16 15 16 17 18 19 19 20 21 19 23 27 26 26 25 21 19 16 14 15 15 14 14 13 13 13 12 12 12 12 12 12 11 10 9 9 9 9 9 9 9 9 9 10 10 9 9 8 8 7 7
8 6 5 4 4 4 4 5 5 6 6 5 5 5 2 2 2 3 2 4 4 5 6 6 8 8 7 6 5 5 7 8 7 7 7 9 9 10 12 12 12 15 16 17 17 17 15 13 13 14 16 18 18 19 21 21 24 28 28 26 24 22 19 16 15 16 15 14 14 13 13 13 13 12 12 12 12 12 11 10 9 9 9 9 10 10 10 10 10 10 10 10 9 8 8 8 7
8 7 7 6 4 3 4 4 5 5 5 5 5 4 2 4 3 1 3 4 3 4 5 5 6 7 7 7 6 5 5 5 5 5 6 8 9 10 11 11 11 12 14 15 15 16 15 12 11 13 16 18 19 19 21 21 23 26 26 25 24 21 18 16 16 17 16 14 14 13 13 13 13 12 12 12 12 12 12 11 10 9 8 9 10 11 10 11 11 10 9 9 8 8 9 8 7
5 7 8 8 7 5 6 6 6 5 6 4 5 3 3 4 2 1 2 2 2 2 3 4 5 6 7 8 9 10 9 7 7 6 5 5 6 9 10 10 11 11 12 13 13 15 16 14 12 13 16 18 20 20 21 20 20 22 24 24 22 20 19 18 18 17 16 14 14 13 13 12 12 12 12 12 11 11 11 11 10 9 8 9 10 11 11 11 11 10 9 8 7 8 9 8 8
Wind_Direction
155 164 172 165 189 203 199 219 231 189 236 259 244 257 130 112 348 237 196 176 205 116 47 333 322 297 270 285 286 297 331 333 350 343 119 97 145 139 139 137 138 142 142 142 145 151 151 153 153 149 147 146 146 146 147 148 149 148 148 148 148 148 147 146 144 144 145 144 140 137 138 138 138 138 139 141 140 140 142 141 137 133 133 132 132 131 129 127 125 124 122 119 116 113 108 100 91
170 176 175 175 199 215 189 214 255 190 220 255 223 226 86 110 225 229 232 324 342 20 327 309 308 277 257 281 277 272 301 25 34 66 87 130 142 140 145 141 142 144 142 142 143 147 148 152 151 148 146 144 145 145 147 148 149 150 150 148 149 149 147 148 146 147 146 143 140 141 142 139 137 137 141 142 143 146 146 140 134 135 137 135 132 131 131 128 127 128 124 119 115 114 115 108 97
186 179 178 187 198 231 200 209 255 230 234 259 175 101 92 173 164 87 1 334 337 329 307 300 293 251 233 230 225 254 178 72 69 86 112 145 143 150 152 143 144 144 142 143 143 145 147 153 151 146 143 142 143 144 145 147 149 151 152 151 151 150 149 151 151 149 146 143 145 146 143 140 138 139 141 140 143 145 140 135 133 137 138 135 135 134 133 129 127 127 123 120 118 117 119 117 108
183 192 195 195 196 226 210 215 251 258 251 264 164 99 116 145 68 20 341 324 319 305 298 294 281 159 254 242 103 279 119 84 73 94 138 156 149 152 150 142 143 142 142 143 144 144 147 154 152 147 142 142 142 143 145 147 151 152 153 152 151 150 149 150 148 145 143 143 146 145 141 139 139 139 140 138 138 135 132 135 136 138 139 138 137 135 133 129 126 124 123 122 120 121 121 121 118
182 197 209 226 225 219 221 236 246 249 257 295 43 108 109 28 9 337 327 313 305 296 294 284 257 131 219 27 17 289 95 86 110 125 144 146 145 148 146 141 141 142 143 143 144 144 148 151 150 150 147 144 143 143 145 146 149 150 151 149 148 146 143 142 141 142 144 145 147 146 142 140 140 139 139 137 136 135 137 139 139 142 142 138 137 136 133 130 127 126 125 125 123 124 123 122 123
182 184 204 245 270 308 246 232 225 237 248 327 302 88 50 358 344 325 317 308 303 288 277 275 256 165 146 72 30 11 60 106 141 143 142 140 145 146 143 141 142 145 144 144 145 143 147 149 149 150 150 149 149 147 146 147 147 147 148 147 145 143 141 141 142 147 150 151 152 150 144 141 140 138 138 138 139 141 141 140 142 144 141 139 140 139 133 130 130 128 126 127 128 126 122 123 125
189 181 190 224 217 235 244 237 244 240 115 13 303 348 358 346 334 313 310 307 304 236 233 261 231 191 131 126 100 59 43 199 143 146 144 142 144 146 144 141 142 145 144 144 144 144 149 150 149 148 148 150 151 150 150 149 148 148 148 148 147 145 145 145 148 151 152 152 151 147 142 141 139 137 138 139 141 140 140 142 144 143 141 141 143 138 135 133 132 131 132 132 127 121 119 122 123
207 205 194 219 202 207 243 247 251 260 73 29 329 350 343 330 321 306 310 301 297 246 234 233 215 218 125 156 158 74 120 161 140 139 139 142 145 149 146 140 143 146 143 142 142 144 150 151 149 147 146 147 147 148 149 150 150 148 148 148 148 148 148 150 150 150 149 147 144 140 139 139 138 137 138 140 141 138 142 147 145 144 143 143 144 142 139 136 135 139 138 131 122 118 121 123 120
206 220 204 231 227 208 241 242 238 259 269 6 8 360 334 323 321 308 306 288 283 261 245 215 206 219 133 145 109 100 111 121 135 135 140 144 145 147 144 142 145 146 143 141 141 142 150 152 149 147 145 144 143 143 144 146 147 146 145 145 147 149 151 152 150 148 146 143 140 139 137 138 138 139 139 140 140 136 144 152 148 147 148 148 148 144 140 138 139 143 138 128 120 117 123 125 119
201 226 225 233 239 224 233 234 220 185 141 33 24 360 343 339 331 315 306 293 279 245 238 197 199 198 132 131 110 114 112 126 138 138 142 143 142 143 142 145 146 146 143 140 141 142 150 152 148 146 145 143 142 141 142 144 145 144 144 145 148 151 153 152 150 148 145 142 140 138 137 140 141 142 141 140 139 135 145 156 152 147 149 149 147 142 140 144 146 145 138 128 119 114 123 127 119
205 209 238 238 230 232 232 226 200 145 107 84 74 23 354 341 333 329 322 299 260 233 210 187 195 173 129 122 113 114 128 139 141 140 143 143 145 144 144 145 146 149 144 141 142 143 148 151 149 146 145 143 142 141 141 143 143 143 145 148 151 151 151 149 149 148 145 143 142 141 140 141 142 143 142 142 141 137 144 158 157 148 149 148 146 145 143 148 151 148 139 128 117 112 121 127 122
225 183 217 237 231 237 245 256 222 137 137 145 87 29 352 337 344 344 338 324 232 224 198 190 184 161 140 126 123 128 144 149 143 143 144 144 150 148 147 146 149 153 146 143 143 143 146 149 150 148 146 145 143 142 142 142 141 143 146 149 152 151 150 148 148 148 147 146 145 145 143 141 141 143 145 145 142 138 143 158 161 149 148 150 149 148 146 149 151 146 140 131 121 112 117 126 126
241 199 216 234 250 255 257 272 255 254 191 124 64 14 345 347 357 346 333 339 181 203 182 185 187 167 155 123 129 142 151 151 144 146 146 148 153 150 147 147 150 152 147 144 143 144 146 147 149 150 148 146 144 144 144 144 144 146 147 150 152 151 151 150 150 151 150 150 150 150 149 148 146 143 147 147 142 139 141 153 163 157 150 151 151 151 151 151 149 145 142 137 126 116 114 123 128
237 228 242 243 254 253 257 257 220 230 167 109 52 1 344 2 359 345 332 307 145 111 149 160 196 176 155 134 150 161 153 150 148 148 150 151 153 149 146 147 150 150 147 145 145 146 148 148 149 151 149 145 145 146 147 147 148 149 150 152 152 151 151 151 152 153 151 150 152 153 153 154 150 146 146 145 142 141 142 149 160 165 161 155 154 157 157 152 148 147 146 142 132 122 115 118 129
239 240 251 254 249 238 234 241 246 236 141 98 41 356 344 27 7 355 357 325 104 45 234 155 187 188 172 179 176 166 154 150 151 150 149 149 150 147 143 145 148 149 148 148 150 150 152 152 150 150 148 147 147 148 150 152 152 152 152 152 152 152 151 152 153 151 150 149 149 150 151 151 150 150 150 149 146 144 145 149 155 164 168 165 163 165 160 154 152 152 149 145 137 129 121 116 127
240 249 235 248 246 232 200 206 235 230 117 82 29 358 342 32 23 6 11 328 90 127 209 167 177 332 211 202 141 152 153 150 151 150 148 148 147 144 142 146 148 149 150 151 155 155 155 155 152 151 150 150 149 150 154 155 154 153 152 153 153 153 153 153 151 149 148 148 148 147 146 146 147 149 150 152 150 148 150 149 151 157 162 163 164 165 163 161 158 154 149 148 142 135 131 121 123
221 241 234 239 237 231 183 195 218 236 79 53 8 1 340 4 23 16 6 301 69 157 188 169 173 337 304 65 112 142 150 150 150 149 149 148 148 146 147 150 152 154 155 156 157 156 156 157 155 153 152 151 148 149 152 154 154 153 153 153 152 152 153 152 149 148 147 148 148 143 142 141 141 143 145 148 147 149 154 151 150 153 156 158 161 164 166 168 165 161 155 152 145 140 139 129 122
208 222 228 236 233 229 76 85 17 355 10 7 348 355 339 341 7 8 311 233 93 186 186 170 173 39 352 97 121 140 146 150 151 153 152 151 153 152 153 157 161 160 160 160 159 159 159 160 160 154 150 150 150 149 149 152 153 152 153 153 152 153 153 151 148 147 147 147 145 140 140 141 139 140 141 142 143 147 151 150 152 158 160 161 163 163 168 171 171 166 160 158 153 148 143 134 127
221 227 232 240 254 37 48 41 34 351 338 342 332 340 330 331 349 346 316 284 171 208 187 181 182 157 142 132 136 142 145 152 154 157 156 156 159 157 158 162 165 164 165 165 163 164 164 164 164 156 150 151 153 150 150 151 151 152 153 154 153 152 152 153 153 150 149 148 144 142 143 142 139 140 141 140 141 146 153 159 165 171 171 172 170 166 170 171 170 166 161 160 157 154 149 146 145
225 234 241 241 71 50 70 74 27 345 334 326 321 326 314 326 337 322 320 304 238 219 189 188 193 169 158 148 143 145 149 155 157 161 162 161 163 162 163 165 168 169 168 167 165 167 168 167 164 160 154 153 154 152 152 151 152 154 154 154 152 153 155 157 159 156 152 150 146 146 144 143 139 139 143 141 139 141 152 162 164 166 169 168 157 151 156 154 155 157 157 157 160 168 167 166 163
217 225 252 330 75 214 130 110 336 330 325 315 311 310 304 330 323 299 310 294 217 200 198 197 201 172 162 155 151 153 153 157 161 164 165 165 167 168 167 168 171 172 168 168 168 169 170 169 165 161 156 156 156 153 153 154 155 154 154 153 152 157 162 163 162 155 152 152 147 146 144 145 143 141 144 141 139 139 143 147 144 144 148 146 139 141 146 142 145 150 156 163 174 185 182 179 173
232 225 249 317 269 249 133 261 312 319 307 301 299 305 318 320 303 294 305 295 263 72 231 203 197 169 163 161 157 156 154 158 160 162 168 169 172 172 170 170 170 172 171 170 170 170 170 171 168 161 157 159 157 154 154 155 155 155 156 155 155 162 168 169 164 153 153 154 148 148 147 148 147 148 150 146 145 145 146 148 146 146 143 143 143 147 147 145 149 152 161 171 178 181 179 181 181
239 225 229 234 251 265 271 286 294 301 294 294 298 314 321 301 297 314 304 292 316 354 318 204 176 161 161 159 155 154 154 157 156 160 167 170 176 175 172 171 170 173 174 171 171 170 169 172 170 162 160 161 159 158 156 156 157 156 157 158 159 165 168 171 166 155 155 156 152 152 151 152 152 152 155 152 150 150 150 150 147 145 142 142 144 144 142 144 144 143 155 160 160 166 172 178 186
235 237 219 232 250 261 271 282 284 288 288 290 295 306 300 289 303 318 298 292 299 308 282 196 152 151 156 154 153 155 155 157 159 165 167 170 177 177 174 173 172 173 168 166 166 166 168 170 169 164 160 161 162 162 160 160 160 156 158 161 163 168 171 171 166 156 155 157 156 155 154 154 155 155 157 156 153 151 149 148 147 145 144 142 142 142 141 142 140 141 147 147 148 153 160 172 183
229 244 244 243 250 256 268 274 275 280 281 284 286 290 285 288 312 298 288 295 295 288 238 171 145 149 153 149 152 156 156 157 161 164 166 172 178 175 174 173 168 166 155 154 158 161 168 166 165 165 162 164 165 163 163 163 160 158 159 162 166 168 172 171 163 156 155 157 158 158 156 154 157 158 158 158 155 152 151 152 150 149 150 150 149 148 148 145 143 143 143 144 146 148 154 167 177
217 237 248 256 258 263 271 272 275 275 275 282 281 281 277 292 323 285 272 15 202 234 182 149 146 153 149 147 152 155 157 160 160 159 161 171 176 174 172 165 157 152 141 151 162 166 173 171 166 165 167 170 168 163 164 164 160 161 161 163 167 167 170 168 160 158 158 159 160 160 159 158 161 162 160 159 157 155 156 156 155 156 158 160 159 156 157 153 147 146 149 150 150 151 153 160 171
171 236 252 262 267 269 272 273 274 274 270 268 270 277 277 286 292 258 129 106 196 174 152 145 150 154 147 149 153 156 160 161 162 162 164 171 174 172 168 160 152 146 143 159 168 170 176 180 174 168 168 169 168 166 165 164 162 163 163 163 167 167 167 164 162 163 160 160 161 160 162 164 164 163 163 161 159 158 160 161 159 161 163 168 169 167 165 157 153 147 141 143 147 153 151 156 167
252 251 261 254 259 259 256 262 263 265 263 256 262 276 274 263 252 245 96 110 179 162 152 147 148 149 148 154 155 158 161 161 166 170 172 174 176 175 165 156 151 143 147 169 172 172 176 182 185 177 172 168 169 171 164 162 165 165 163 164 168 167 164 164 166 164 160 161 161 161 165 167 166 165 165 163 162 162 164 165 164 166 167 170 172 170 170 163 157 148 135 137 143 151 151 154 157
247 250 262 247 245 247 239 247 258 258 259 260 266 267 250 232 229 200 100 139 170 166 158 148 147 150 153 154 154 159 161 165 174 180 179 177 174 166 151 147 158 152 152 174 181 183 182 181 187 185 179 173 169 171 167 166 169 166 164 166 168 165 164 167 167 165 163 162 162 165 166 167 167 167 167 167 165 166 167 166 166 170 169 170 171 170 174 171 170 164 152 152 153 159 157 155 152
239 224 251 255 242 235 205 224 251 244 247 255 249 255 224 206 199 108 121 174 178 175 163 154 152 154 159 156 157 166 168 174 183 185 184 181 173 164 159 164 179 171 163 177 188 191 189 183 185 188 184 178 173 170 169 170 170 167 167 169 169 165 166 169 168 169 166 163 166 167 166 169 170 169 172 173 170 169 168 165 165 169 169 168 169 171 176 176 178 175 167 166 163 163 155 148 147
229 206 225 247 246 177 124 162 247 229 172 188 226 248 222 181 136 80 153 179 182 182 167 163 162 164 168 164 170 178 177 186 195 192 187 186 182 177 176 179 187 184 176 183 189 191 191 186 186 189 184 181 180 175 173 173 168 168 170 170 170 167 170 173 171 172 168 166 168 168 169 171 172 173 176 176 174 171 169 169 168 167 167 163 168 177 173 169 173 171 171 169 161 158 147 137 130
215 227 207 208 234 155 129 159 253 308 106 182 219 239 233 180 102 78 150 178 190 189 174 170 175 178 177 174 182 187 183 191 198 197 192 190 187 181 181 182 185 188 185 187 188 187 189 186 185 188 184 180 181 178 176 174 170 173 173 171 173 171 175 177 174 173 171 171 170 170 174 173 175 177 179 180 177 175 175 174 171 168 164 160 167 173 163 163 168 163 171 175 164 156 143 133 125
204 234 229 183 218 209 153 161 171 315 27 187 219 248 243 180 113 111 151 183 196 198 188 178 181 185 183 186 192 192 187 193 199 198 194 190 188 180 181 188 190 191 190 188 185 182 185 184 182 186 185 181 179 177 177 175 173 175 175 176 176 176 181 178 176 177 174 174 173 174 178 177 181 182 184 186 180 179 180 174 167 163 161 159 163 166 162 167 170 163 165 172 169 155 142 136 131
191 212 239 203 224 256 185 154 156 249 272 218 221 248 258 229 129 141 165 189 204 210 200 184 185 189 187 191 200 197 189 194 202 200 194 193 192 181 179 193 199 198 194 191 188 181 177 178 181 188 192 189 183 178 179 178 176 177 179 183 180 178 182 180 178 180 177 177 176 176 179 179 183 184 188 190 184 183 178 169 162 158 159 160 161 164 163 166 171 167 157 152 164 161 149 144 139
201 198 228 213 212 236 240 185 135 227 268 251 238 239 249 243 202 182 187 192 211 217 209 199 195 192 191 198 207 203 193 193 201 201 195 194 196 189 185 192 199 199 194 193 192 181 173 180 191 197 198 193 185 178 178 178 176 178 180 185 185 179 179 181 181 181 179 179 179 177 177 178 184 186 190 191 188 185 176 164 160 159 159 159 162 164 161 165 170 164 152 148 156 155 147 145 139
249 209 250 246 220 219 227 270 312 301 282 259 249 247 247 237 208 193 192 195 213 215 210 211 208 199 197 204 211 210 201 189 193 201 196 194 199 196 193 194 195 195 191 190 187 178 180 187 191 195 195 193 189 181 179 178 174 177 181 187 190 183 178 181 183 182 180 180 180 178 176 179 183 185 190 192 190 187 179 166 161 161 161 161 163 162 161 169 171 162 155 153 149 142 144 145 139
270 252 250 249 249 241 197 235 264 286 281 261 248 250 252 248 231 199 185 205 215 213 211 210 212 209 204 207 212 215 208 186 186 200 198 197 199 197 197 197 194 193 190 189 182 177 185 186 185 192 194 194 190 184 182 180 177 179 183 187 190 185 179 180 182 183 183 181 178 176 178 182 184 185 188 188 187 185 180 171 166 166 164 163 162 160 163 170 170 161 152 153 154 150 148 146 142
248 250 253 247 246 247 199 242 269 256 260 260 251 252 249 248 245 214 190 220 224 219 218 213 212 212 211 212 214 218 212 188 186 194 194 198 201 198 199 199 197 196 192 187 182 180 185 186 189 193 195 195 191 187 185 182 181 182 184 185 188 185 179 178 180 181 181 179 177 176 180 184 183 184 182 180 181 181 179 174 171 169 164 162 158 156 161 168 171 161 153 158 159 153 148 150 152
239 243 253 254 249 262 226 226 244 225 241 256 252 255 253 249 249 234 212 228 236 230 227 223 214 212 214 214 213 214 211 200 193 189 187 198 204 201 202 204 202 199 191 187 184 181 185 192 194 190 193 198 194 189 187 185 183 183 185 185 186 185 178 175 176 175 175 173 174 175 177 179 178 179 176 174 177 180 181 177 172 167 163 168 163 155 159 169 172 163 161 164 158 152 150 158 169
233 239 247 248 228 248 236 190 180 221 252 269 276 273 263 254 250 246 233 232 241 238 234 231 219 215 216 215 213 208 207 204 199 194 186 194 202 202 204 206 204 199 190 185 180 178 186 195 195 188 191 195 194 190 188 188 185 183 186 184 182 180 171 168 165 164 169 168 170 173 172 172 172 175 174 174 176 178 180 177 173 169 168 176 168 158 165 172 170 164 167 171 165 161 160 165 177
230 235 248 261 254 255 264 248 242 260 248 246 263 269 257 244 239 240 228 217 231 238 235 231 222 219 220 219 219 211 209 206 201 203 195 191 197 202 206 206 202 200 191 182 178 179 187 190 190 191 191 189 192 191 186 185 184 181 181 177 174 168 158 161 162 161 168 168 168 170 170 169 170 173 175 175 176 174 176 176 174 171 172 177 170 164 170 172 171 170 172 178 178 174 170 171 176
237 223 234 257 263 260 262 258 257 264 239 204 217 249 246 226 226 231 217 202 220 225 225 228 222 217 216 221 222 212 211 207 201 207 201 195 196 200 206 204 201 202 195 184 178 183 186 181 186 194 190 188 192 192 186 182 182 180 178 176 174 169 164 169 168 165 169 167 167 168 167 169 171 174 175 174 172 170 172 172 171 172 173 175 170 168 171 172 174 174 176 182 187 191 184 175 171
250 201 216 243 253 253 250 240 226 249 253 157 196 247 254 216 215 220 212 213 220 214 216 226 223 217 215 217 219 211 208 205 201 204 201 199 197 199 205 203 204 205 200 189 179 185 185 173 181 191 187 188 188 189 189 182 182 183 181 182 180 172 170 173 170 166 168 164 163 165 166 170 174 174 173 171 169 167 169 169 170 171 172 174 171 169 172 175 177 175 177 183 186 192 192 182 168
242 105 176 241 241 235 229 225 222 244 294 153 197 236 261 250 227 207 207 221 227 219 219 224 222 221 217 215 216 211 206 199 199 204 203 202 200 204 206 205 208 208 201 192 182 184 181 171 181 186 181 187 188 191 192 185 185 186 185 187 185 177 169 165 163 162 164 162 162 164 165 169 174 175 173 170 168 165 166 167 168 168 171 175 174 175 176 174 173 171 174 179 181 184 187 187 169
225 98 204 262 248 233 220 219 223 231 258 222 205 212 248 257 231 204 209 228 233 229 229 230 229 226 222 218 213 206 201 196 198 206 207 205 204 207 207 205 208 203 196 193 184 180 181 180 183 182 186 195 195 196 193 189 188 187 187 185 184 179 164 157 157 156 158 159 160 162 164 166 170 170 169 169 168 165 162 161 163 166 170 174 174 175 172 165 163 165 170 173 175 177 180 189 176
170 117 234 248 230 227 215 220 225 204 233 246 212 197 233 258 233 207 211 232 244 243 245 262 257 240 227 220 212 203 201 198 200 206 209 212 209 206 205 203 205 198 182 179 168 160 165 164 158 170 193 202 200 201 197 194 192 192 191 181 179 177 159 154 154 149 152 156 159 161 162 164 164 163 164 166 165 162 160 160 164 168 168 170 171 170 165 157 154 156 164 168 169 171 173 186 195
151 195 217 206 195 201 203 222 235 216 228 243 214 195 228 262 250 221 194 227 313 349 335 328 312 259 227 214 207 201 199 198 202 204 203 205 204 198 187 173 185 172 132 131 130 132 145 143 142 167 194 198 196 206 206 199 193 196 196 183 181 174 155 151 151 148 153 156 160 162 162 163 162 161 163 163 163 162 162 163 165 167 164 166 166 167 166 158 150 150 154 159 164 171 169 178 205
216 230 222 203 189 187 205 210 217 234 235 226 199 200 229 251 252 245 69 57 17 360 333 323 322 275 219 201 196 189 185 187 197 200 191 185 180 164 147 153 162 124 110 133 171 159 145 148 149 165 200 200 190 199 208 204 197 200 201 190 180 165 153 153 153 153 157 159 162 163 163 164 162 164 165 163 164 162 159 155 154 156 160 165 164 163 167 160 151 150 151 155 160 168 173 176 190
218 231 223 219 205 190 215 212 207 233 220 131 157 202 233 246 253 40 35 25 12 359 342 328 308 260 192 178 178 171 168 175 184 181 167 161 160 147 147 155 136 110 114 150 183 160 135 135 143 160 191 197 186 187 198 200 194 194 199 192 176 161 159 160 156 157 161 164 164 164 166 166 165 168 167 165 165 161 155 149 148 149 152 161 162 157 160 160 156 153 151 152 154 162 173 180 183
212 219 217 224 218 201 218 219 217 233 201 131 165 223 245 245 239 48 20 8 10 360 360 1 348 181 158 151 151 149 151 157 165 164 162 170 173 160 151 146 130 123 135 168 171 142 133 133 139 156 177 185 183 189 195 192 183 181 189 193 180 169 168 166 163 163 165 168 167 166 168 167 166 168 167 167 166 162 157 150 147 140 137 146 152 150 150 153 154 151 145 141 145 155 162 170 173
205 219 227 232 235 228 232 237 243 245 216 151 168 213 252 248 108 57 30 22 22 13 19 37 82 121 126 126 131 137 139 144 158 167 173 179 167 152 146 146 148 145 153 171 171 147 138 140 144 156 175 181 179 186 192 186 177 173 181 192 189 181 178 174 169 167 168 170 167 166 168 165 165 166 166 168 168 165 158 149 142 131 128 136 141 141 141 142 141 138 134 130 135 145 151 159 164
195 214 234 237 245 244 245 286 322 292 257 204 185 226 264 172 95 69 53 38 34 34 38 49 63 77 89 99 116 131 138 150 171 176 170 166 157 152 155 164 169 156 149 162 172 158 152 159 163 165 175 179 176 183 188 183 176 174 182 191 192 193 191 183 175 172 172 170 164 164 165 164 163 162 163 166 168 167 159 149 141 129 128 135 136 136 136 136 134 131 130 127 128 136 144 151 154
178 208 226 225 257 260 246 184 105 199 261 237 203 243 231 151 131 90 69 38 36 44 51 61 62 67 74 72 75 91 123 150 157 156 152 152 153 154 165 177 166 144 143 155 161 164 170 176 173 168 171 175 177 182 183 180 179 180 184 188 190 198 199 187 178 174 172 168 163 163 163 162 161 159 159 163 166 166 159 153 143 131 131 135 136 137 133 133 133 131 130 126 125 131 137 142 146
202 214 217 177 215 258 250 238 205 217 245 234 210 245 240 203 184 139 84 35 39 41 51 68 72 72 77 84 91 97 105 107 111 127 133 135 148 158 170 178 158 138 141 149 152 166 180 181 172 167 169 172 174 177 178 179 182 182 183 185 189 200 199 187 181 178 172 168 165 164 164 163 160 157 157 161 164 163 159 156 146 135 136 138 139 139 135 134 133 131 128 123 125 129 130 133 136
237 276 267 206 221 226 217 231 239 235 245 243 223 233 245 244 174 146 106 43 49 47 52 60 63 70 75 94 121 128 128 121 117 130 132 133 153 171 177 172 151 139 141 146 152 167 176 177 170 164 166 168 170 176 176 176 181 182 181 183 190 200 197 186 180 177 174 173 170 167 168 166 162 160 159 160 162 163 162 160 153 144 141 141 142 140 137 134 131 129 127 121 120 121 119 121 124
229 263 256 232 245 248 224 221 237 246 249 248 235 220 230 12 82 127 99 74 68 58 64 57 55 62 60 66 91 124 138 137 132 135 133 137 162 183 179 167 148 138 140 148 157 168 171 172 170 165 166 168 170 175 176 176 180 182 180 182 191 197 193 184 178 176 177 178 174 171 171 169 166 165 163 163 164 165 166 165 160 153 146 145 145 142 138 135 132 131 129 125 122 121 116 111 113
207 223 223 214 219 250 256 233 233 257 260 249 250 233 122 55 42 99 84 82 82 72 80 71 56 50 43 49 55 60 92 113 115 120 131 144 169 183 173 162 151 142 144 151 159 166 167 169 172 168 168 170 172 175 177 177 178 180 180 184 190 191 187 181 179 178 179 178 176 174 172 170 168 167 167 168 167 167 169 169 165 158 151 148 146 143 139 138 136 133 130 129 128 127 122 112 108
230 226 226 223 216 220 235 228 216 242 260 262 270 262 104 74 10 44 72 86 126 112 93 82 63 44 42 48 47 48 54 60 65 69 89 133 173 184 174 164 151 143 147 154 160 166 168 172 174 169 168 171 173 175 177 176 175 179 183 184 185 183 182 183 181 178 178 176 175 173 169 167 168 167 167 169 168 168 171 170 166 161 152 148 148 144 142 141 141 137 134 133 134 132 127 119 113